Weather in São Lourenço

Brazil     22°07′01″S   45°03′06″W
temp.,
°C
wind,
m/s
gust,
m/s
humid.,
%
clouds,
%
prec.,
mm/h
press.,
hPa
HPBL,
m
27 february, sat
sat2700:00+17ene1196100 0.3 101525
03:00+17e1196100 1.1 101448
06:00+17ene1598100 2.6 1015248
09:00+18e1595100 6.2 1016293
12:00+19ne2695100 2.5 1016496
15:00+18se2396100 5.5 1014230
18:00+17s1196100 0.6 101438
21:00+17se0092100 0.6 101523
28 february, sun
sun2800:00+15se1193100 0.0 101523
03:00+15sse1193100 0.0 101423
06:00+14se119499 0.0 101523
09:00+21ene138596 1.2 1016307
12:00+23nne477699 3.1 1015917
15:00+23nne257898 5.0 1013847
18:00+20ene228689 4.1 101339
21:00+18e119094 4.1 101523
1 march, mon
mon100:00+16e119481 0.0 101525
03:00+15e119590 0.0 101423
06:00+15ene119689 0.0 101523
09:00+20ene248594 0.0 1015541
12:00+23nne2475100 0.0 1015879
15:00+24n1369100 0.1 10121085
18:00+21ene238663 0.4 101266
21:00+18ene129381 0.5 101435
2 march, tue
tue200:00+16ne119449 0.0 101523
03:00+16ene119575 0.0 101423
06:00+15se019690 0.0 101623
09:00+21nne238179 0.0 1017584
12:00+24nnw237175 0.3 10161043
15:00+24n337779 1.4 1013778
18:00+21ne008774 2.8 101323
21:00+18ese119168 2.9 101623
3 march, wed
wed300:00+16ene119375 0.0 101723
03:00+15se119487 0.0 101623
06:00+15ene019533 0.0 101723
09:00+21nw118447 0.1 1018371
12:00+25nnw346682 0.1 10171279
15:00+25nw236775 0.4 10141227
18:00+22ese11817 1.2 101423
21:00+18sse119010 1.4 101723